Regional Weather Roundup
Issued by NWS

Home | Current Version | Previous Version | Graphics & Text | Print | Product List | Glossary On
Versions: 1 2 3 4 5 6 7 8 9 10 11 12 13 14 15 16 17 18 19 20 21 22 23 24 25 26 27 28 29 30 31 32 33 34 35 36 37 38 39 40 41 42 43 44 45 46 47 48 49 50
000
ASUS43 KLSX 211407
RWRMO

WEATHER SUMMARY FOR MISSOURI
NATIONAL WEATHER SERVICE SPRINGFIELD MO
900 AM CDT MON APR 21 2014

NOTE: "FAIR" INDICATES FEW OR NO CLOUDS BELOW 12,000 FEET WITH NO
       SIGNIFICANT WEATHER AND/OR OBSTRUCTIONS TO VISIBILITY.
       CURRENT SKY AND/OR WEATHER CONDITIONS ARE NOT AVAILABLE FOR
       CHILLICOTHE AND FARMINGTON.

MOZ001>031-035>038-043-044-053-054-211500-
...NORTHERN AND WESTERN MISSOURI...

CITY           SKY/WX    TMP DP  RH WIND       PRES   REMARKS
KANSAS CTY INT CLOUDY    62  57  83 SW10      30.00S
KANSAS C DTWN  CLOUDY    64  58  80 SW5       30.00R
LEE`S SUMMIT   CLOUDY    61  58  90 SW8       30.01R
ST JOSEPH      LGT RAIN  61  58  90 SW7       29.98S FOG
CHILLICOTHE      N/A     61  59  93 CALM      30.00S
KIRKSVILLE     CLOUDY    65  55  70 SW6       29.99F

$$
MOZ066>068-077>081-088>096-101>105-211500-
...SOUTHWEST MISSOURI...

CITY           SKY/WX    TMP DP  RH WIND       PRES   REMARKS
SPRINGFIELD    CLOUDY    61  58  90 S5        30.04S
JOPLIN         CLOUDY    62  60  93 S7        30.03F FOG

$$
MOZ032>034-039>042-045>050-055>058-069>072-211500-
...CENTRAL MISSOURI...

CITY           SKY/WX    TMP DP  RH WIND       PRES   REMARKS
COLUMBIA       LGT RAIN  61  58  90 SW5       30.02F
JEFFERSON CITY LGT RAIN  62  58  86 CALM      30.03S
ROLLA          LGT RAIN  60  56  86 S7        30.04S
SEDALIA        CLOUDY    62  59  90 SW9       30.02S
WHITEMAN AFB   PTSUNNY   61  58  88 SW7       30.00F
OSAGE BEACH    CLOUDY    59  55  88 S5        30.06S

$$
MOZ051-052-059>065-211500-
...EAST CENTRAL MISSOURI...

CITY           SKY/WX    TMP DP  RH WIND       PRES   REMARKS
ST LOUIS INTL  CLOUDY    68  49  50 SW9       30.02S
SPIRIT OF STL  CLOUDY    66  52  60 SW14G22   30.01S
ST CHARLES     CLOUDY    64  51  62 N3        30.01S

$$
MOZ072>076-082>087-097>100-106>115-211500-
...SOUTH CENTRAL AND SOUTHEAST MISSOURI...

CITY           SKY/WX    TMP DP  RH WIND       PRES   REMARKS
CAPE GIRARDEAU CLOUDY    66  52  60 W9        30.05F
FARMINGTON     CLOUDY    61  55  82 CALM      30.07S
POPLAR BLUFF   CLOUDY    64  52  64 CALM      30.05S
WEST PLAINS    CLOUDY    61  57  87 SW7       30.07S

$$



USA.gov is the U.S. government's official web portal to all federal, state and local government web resources and services.